[[{"header":{"parameterUnit":"m.s-1","parameterCategory":1,"la1":30.2991,"la2":30.254,"lo1":-89.0895,"lo2":-89.0444,"dy":0.0017,"dx":0.0017,"nx":28,"ny":28,"refTime":"2024-05-01T03:00:00:Z","depth":0,"parameterNumber":2,"parameterNumberName":"U-component_of_WINDS"},"data":[0,0,0,0,0,0,0,0,0,0,0,0,0,0,0,0,0,0,0,0,0,0,0,0,0,0,0,0,0,0,0,0,0,0,0,0,0,0,0,0,0,0,0,0,0,0,0,0,0,0,0,0,0,0,0,0,0,0,-2.9298,-2.9299,0,-2.9315,-2.9315,-2.9315,-2.9259,-2.9257,-2.9256,-2.9254,-2.9271,-2.9272,-2.9274,0,0,0,0,0,0,0,0,0,0,0,0,0,-2.9218,-2.922,-2.9298,-2.9299,-2.9299,-2.9315,-2.9315,-2.9315,-2.9259,-2.9257,-2.9255,-2.9253,-2.927,-2.9272,-2.9275,0,0,0,0,0,0,0,0,0,0,0,0,0,-2.9246,-2.922,-2.9298,-2.9273,-2.9271,-2.9315,-2.9315,-2.9315,-2.926,-2.9257,-2.9255,-2.9252,-2.9269,-2.9272,-2.9275,-2.9345,0,0,-2.9284,-2.9286,0,0,0,0,0,0,0,0,-2.9244,-2.9249,-2.9276,-2.9275,-2.9272,-2.9282,-2.9293,-2.9325,-2.926,-2.9264,-2.9254,-2.9251,-2.9276,-2.9279,-2.9287,-2.9345,-2.9346,-2.9284,-2.9286,-2.9288,-2.9288,0,0,0,0,0,0,0,-2.9242,-2.9248,-2.9305,-2.9277,-2.9274,-2.926,-2.9262,-2.9299,-2.9284,-2.9263,-2.9259,-2.9262,-2.9275,-2.9285,-2.9287,-2.9346,-2.9284,-2.9287,-2.9289,-2.929,-2.9462,-2.9464,0,0,0,0,0,0,-2.9244,-2.9246,-2.9304,-2.9305,-2.9252,-2.9264,-2.9265,-2.9282,-2.9284,-2.9282,-2.9264,-2.9259,-2.9281,-2.9284,-2.9288,-2.9369,-2.9288,-2.929,-2.9292,-2.9459,-2.9462,-2.9465,0,0,0,0,0,0,-2.9242,-2.925,-2.9304,-2.9275,-2.9281,-2.9268,-2.9287,-2.9283,-2.9293,-2.9284,-2.9281,-2.9277,-2.9279,-2.9283,-2.9331,-2.9368,-2.9292,-2.9295,-2.9456,-2.946,-2.9464,-2.9531,0,0,0,0,0,0,-2.924,-2.9249,-2.9275,-2.9276,-2.9282,-2.9347,-2.9289,-2.9286,-2.9298,-2.9292,-2.9295,-2.9293,-2.9277,-2.9327,-2.9334,-2.9371,-2.9297,-2.9452,-2.9458,-2.9463,-2.9526,-2.9537,-2.9547,0,0,0,0,0,-2.9238,-2.9294,-2.9277,-2.9284,-2.9315,-2.9349,-2.9353,-2.9333,-2.9302,-2.9328,-2.9322,-2.9293,-2.9364,-2.9332,-2.934,-2.9378,-2.945,-2.9456,-2.9462,-2.9521,-2.9535,-2.9547,0,0,0,0,0,0,-2.9298,-2.9293,-2.9275,-2.9333,-2.9342,-2.9339,-2.9372,-2.9349,-2.9366,-2.936,-2.9335,-2.9336,-2.9388,-2.9388,-2.9353,-2.9446,-2.9401,-2.9409,-2.9443,-2.9457,-2.9467,-2.9465,-2.9299,0,0,0,0,0,-2.9318,-2.9346,-2.9341,-2.9392,-2.9398,-2.9384,-2.9398,-2.9383,-2.9391,-2.9394,-2.9392,-2.9401,-2.9425,-2.9441,-2.9463,-2.9526,-2.9526,-2.9557,-2.9568,-2.9576,-2.9583,-2.9616,-2.963,-2.9486,-2.9486,-2.9486,0,0,-2.9359,-2.936,-2.938,-2.9404,-2.9409,-2.9439,-2.9388,-2.9421,-2.9442,-2.9399,-2.9443,-2.9442,-2.9451,-2.9506,-2.9531,-2.9508,-2.9623,-2.9584,-2.9591,-2.9593,-2.9624,-2.9638,-2.965,-2.949,-2.9489,-2.9488,0,0,-2.945,-2.9454,-2.9497,-2.9503,-2.9512,-2.9503,-2.9513,-2.9515,-2.9513,-2.9557,-2.9525,-2.955,-2.9592,-2.9599,-2.9609,-2.9703,-2.9677,-2.9711,-2.9767,-2.9799,-2.9811,-2.9821,-2.9853,-2.9865,-2.9718,-2.9719,-2.9719,0,-2.95,-2.9543,-2.9522,-2.9558,-2.9569,-2.9532,-2.9576,-2.9583,-2.9598,-2.9607,-2.9582,-2.9634,-2.9637,-2.9694,-2.9717,-2.9726,-2.9737,-2.971,-2.9811,-2.9821,-2.9829,-2.986,-2.9873,-2.9722,-2.9722,-2.9722,-2.9721,0,-2.9604,-2.9635,-2.9669,-2.9684,-2.97,-2.974,-2.9725,-2.9743,-2.9727,-2.972,-2.9766,-2.9769,-2.979,-2.9803,-2.9787,-2.9857,-2.9843,-2.9815,-2.9769,-2.9848,-2.9876,-2.9888,-2.9728,-2.9727,-2.9726,-2.9725,0,0,-2.9731,-2.9736,-2.9748,-2.9755,-2.9762,-2.9785,-2.9824,-2.9845,-2.9861,-2.9873,-2.9904,-2.9941,-2.9915,-2.9926,-2.9911,-2.994,-3.0013,-2.9908,-2.9907,-2.9926,-3.009,-3.011,-3.0124,-2.9997,-2.9999,-3.0001,-3.0089,0,-2.9819,-2.9884,-2.9867,-2.9931,-2.9959,-2.9925,-2.9958,-2.9966,-2.9961,-2.9984,-2.9979,-3.0005,-2.997,-2.9976,-3.0003,-2.9999,-3.0046,-2.9992,-3.0024,-3.0026,-3.0021,-3.0139,-3.016,-3.0244,-3.01,-3.0102,-3.0104,0,-2.993,-2.9946,-3.0014,-3.0017,-3.0028,-3.0058,-3.0076,-3.0098,-3.0107,-3.0102,-3.0114,-3.0093,-3.0131,-3.0087,-3.0138,-3.0102,-3.0114,-3.0114,-3.0117,-3.0118,-3.0068,-3.0142,-3.027,-3.0282,-3.0121,-3.012,-3.0118,0,-3.0014,-3.0054,-3.0099,-3.0106,-3.0111,-3.0132,-3.0135,-3.0142,-3.0156,-3.0172,-3.0181,-3.0201,-3.0212,-3.0229,-3.0214,-3.0183,-3.0267,-3.0222,-3.0263,-3.0263,-3.028,-3.0279,-3.041,-3.0292,-3.0291,-3.0291,-3.0291,0,-3.0113,-3.0155,-3.0137,-3.0164,-3.0211,-3.0191,-3.0238,-3.0237,-3.0243,-3.027,-3.0242,-3.0268,-3.0248,-3.0272,-3.0261,-3.0304,-3.031,-3.0306,-3.0302,-3.0308,-3.0308,-3.0314,-3.0307,-3.0294,-3.0294,-3.0293,-3.0292,0,-3.0214,-3.0204,-3.0251,-3.0252,-3.0253,-3.0287,-3.0288,-3.0313,-3.0308,-3.0342,-3.0349,-3.034,-3.0367,-3.0354,-3.0382,-3.0375,-3.0431,-3.042,-3.0428,-3.0424,-3.0466,-3.0461,-3.0604,-3.0621,-3.0493,-3.0494,-3.0495,0,-3.0277,-3.0309,-3.0314,-3.033,-3.0335,-3.0361,-3.0375,-3.0358,-3.0374,-3.0387,-3.0411,-3.0436,-3.0454,-3.0499,-3.0494,-3.0516,-3.0505,-3.0553,-3.0508,-3.0512,-3.0504,-3.0502,-3.0504,-3.0562,-3.0563,-3.0565,-3.0566,0,-3.039,-3.0383,-3.0405,-3.0425,-3.0443,-3.0458,-3.0471,-3.0485,-3.0468,-3.0488,-3.0515,-3.053,-3.0559,-3.0584,-3.0603,-3.0606,-3.0583,-3.0581,-3.0591,-3.0596,-3.0598,-3.0596,-3.0451,-3.0577,-3.0576,-3.0575,-3.0574,-3.0574,-3.0473,-3.05,-3.0507,-3.0532,-3.054,-3.0553,-3.0577,-3.0574,-3.0597,-3.0619,-3.0607,-3.0639,-3.0647,-3.0671,-3.0677,-3.0702,-3.0682,-3.0698,-3.0701,-3.0705,-3.071,-3.0596,-3.0705,-3.0705,-3.0705,-3.0704,-3.0704,0,-3.0583,-3.0587,-3.061,-3.0629,-3.0649,-3.0626,-3.0639,-3.0657,-3.0685,-3.0695,-3.0714,-3.0746,-3.077,-3.0768,-3.079,-3.081,-3.08,-3.0817,-3.0814,-3.0815,-3.0726,-3.0715,-3.0824,-3.0824,-3.0824,-3.0824,-3.0824,-3.0824,-3.0643,-3.0686,-3.0681,-3.0728,-3.0731,-3.0762,-3.0771,-3.0783,-3.079,-3.0827,-3.0847,-3.0845,-3.085,-3.0873,-3.0894,-3.0893,-3.0902,-3.0921,-3.0916,-3.0833,-3.0821,-3.081,-3.0798,-3.0924,-3.0924,-3.1003,-3.1003,-3.1004]},{"header":{"parameterUnit":"m.s-1","parameterCategory":1,"la1":30.2991,"la2":30.254,"lo1":-89.0895,"lo2":-89.0444,"dy":0.0017,"dx":0.0017,"nx":28,"ny":28,"refTime":"2024-05-01T03:00:00:Z","depth":0,"parameterNumber":3,"parameterNumberName":"V-component_of_WINDS"},"data":[0,0,0,0,0,0,0,0,0,0,0,0,0,0,0,0,0,0,0,0,0,0,0,0,0,0,0,0,0,0,0,0,0,0,0,0,0,0,0,0,0,0,0,0,0,0,0,0,0,0,0,0,0,0,0,0,0,0,3.5641,3.5641,0,3.562,3.562,3.562,3.5566,3.5564,3.5563,3.5562,3.5543,3.5543,3.5544,0,0,0,0,0,0,0,0,0,0,0,0,0,3.5635,3.5635,3.5641,3.5641,3.564,3.5621,3.562,3.562,3.5566,3.5564,3.5563,3.5562,3.5543,3.5543,3.5544,0,0,0,0,0,0,0,0,0,0,0,0,0,3.5628,3.5635,3.5641,3.5611,3.5608,3.5621,3.562,3.562,3.5566,3.5564,3.5563,3.5561,3.5542,3.5543,3.5544,3.5585,0,0,3.5547,3.5547,0,0,0,0,0,0,0,0,3.5629,3.5629,3.5616,3.5613,3.561,3.5594,3.5611,3.5608,3.5567,3.5582,3.5562,3.556,3.5561,3.5561,3.5561,3.5584,3.5583,3.5547,3.5547,3.5548,3.5548,0,0,0,0,0,0,0,3.5629,3.5629,3.5633,3.5615,3.5612,3.5599,3.5596,3.561,3.5582,3.5581,3.5577,3.5575,3.5559,3.556,3.556,3.5583,3.5547,3.5548,3.5548,3.5548,3.5639,3.564,0,0,0,0,0,0,3.5634,3.563,3.5633,3.5632,3.5615,3.5601,3.5597,3.5601,3.5582,3.5577,3.5576,3.5572,3.5559,3.5559,3.5559,3.5605,3.5548,3.5549,3.5549,3.5637,3.5639,3.5641,0,0,0,0,0,0,3.5634,3.5635,3.5634,3.563,3.5629,3.5603,3.5607,3.5601,3.5602,3.5578,3.5573,3.5582,3.5558,3.5558,3.5579,3.5604,3.5549,3.555,3.5635,3.5637,3.564,3.5698,0,0,0,0,0,0,3.5634,3.5635,3.565,3.5631,3.5629,3.5654,3.5608,3.5602,3.5603,3.5598,3.5582,3.5578,3.5556,3.5578,3.558,3.5604,3.555,3.5632,3.5636,3.5639,3.5694,3.5703,3.571,0,0,0,0,0,3.5634,3.5667,3.5651,3.5651,3.5647,3.5655,3.5655,3.5629,3.5605,3.562,3.5605,3.5578,3.5601,3.558,3.5582,3.5607,3.563,3.5635,3.5639,3.569,3.5701,3.571,0,0,0,0,0,0,3.569,3.5664,3.5645,3.5673,3.5667,3.5646,3.5664,3.5641,3.5642,3.5637,3.5605,3.5602,3.5628,3.5619,3.5597,3.5645,3.5611,3.5616,3.565,3.566,3.5668,3.5669,3.5551,0,0,0,0,0,3.5705,3.5714,3.5691,3.5718,3.5715,3.5691,3.5693,3.5674,3.5666,3.5664,3.565,3.5644,3.565,3.5654,3.5658,3.5693,3.5689,3.5711,3.5719,3.5726,3.573,3.5748,3.5758,3.5655,3.5655,3.5655,0,0,3.5737,3.5724,3.5732,3.5729,3.5721,3.5732,3.5689,3.5701,3.5708,3.5666,3.5684,3.5675,3.5666,3.5694,3.5706,3.5688,3.5758,3.5731,3.5737,3.5737,3.5753,3.5763,3.5772,3.5658,3.5657,3.5657,0,0,3.5801,3.5792,3.5813,3.5807,3.5797,3.578,3.5786,3.5769,3.576,3.5779,3.5747,3.5756,3.5766,3.5761,3.576,3.5824,3.5799,3.5826,3.5868,3.5886,3.5894,3.5901,3.5924,3.5933,3.583,3.5831,3.5831,0,3.5842,3.5856,3.5827,3.5842,3.5842,3.5804,3.5825,3.5821,3.5813,3.5814,3.5794,3.5807,3.5798,3.5825,3.584,3.5841,3.5846,3.5827,3.5895,3.5902,3.5908,3.593,3.5938,3.5834,3.5834,3.5833,3.5833,0,3.5907,3.5917,3.5936,3.5929,3.5931,3.5949,3.5924,3.593,3.5911,3.5897,3.5916,3.5905,3.5906,3.5911,3.5893,3.5935,3.5925,3.5901,3.5866,3.5922,3.5941,3.5949,3.5839,3.5838,3.5837,3.5836,0,0,3.6005,3.5982,3.599,3.5986,3.5972,3.598,3.5997,3.5998,3.6003,3.5999,3.6013,3.6023,3.6001,3.6,3.5981,3.5997,3.6048,3.5971,3.597,3.5985,3.6095,3.6113,3.6123,3.6032,3.6033,3.6034,3.6095,0,3.6065,3.6092,3.6067,3.6099,3.6109,3.6073,3.6088,3.6081,3.6069,3.6075,3.6062,3.6069,3.6039,3.6039,3.6053,3.6039,3.6069,3.6034,3.6045,3.6045,3.6048,3.6133,3.6152,3.621,3.6103,3.6104,3.6105,0,3.6138,3.6138,3.6171,3.6155,3.6158,3.6172,3.6171,3.6178,3.617,3.616,3.6159,3.6136,3.6152,3.6119,3.6141,3.6117,3.6121,3.6115,3.6116,3.6116,3.6079,3.6135,3.6228,3.6237,3.6117,3.6116,3.6115,0,3.6207,3.6214,3.6234,3.6233,3.6215,3.6226,3.6219,3.621,3.6212,3.6212,3.6213,3.6215,3.6216,3.6218,3.6196,3.6174,3.6222,3.6186,3.6214,3.6215,3.6226,3.6225,3.632,3.6228,3.6228,3.6228,3.6228,0,3.6276,3.6298,3.6265,3.6278,3.6301,3.6273,3.6297,3.6287,3.6279,3.629,3.6259,3.627,3.6241,3.6249,3.6232,3.6253,3.6254,3.6247,3.6242,3.6249,3.625,3.6251,3.6246,3.623,3.623,3.6229,3.6229,0,3.6356,3.6335,3.6355,3.6337,3.6333,3.6351,3.6336,3.6348,3.6333,3.6347,3.6349,3.6327,3.6335,3.6313,3.6318,3.6306,3.6337,3.6326,3.634,3.6336,3.6366,3.6364,3.6465,3.6477,3.6377,3.6378,3.6379,0,3.6402,3.6418,3.6401,3.6406,3.6401,3.6409,3.6411,3.6385,3.6389,3.6382,3.6394,3.64,3.6402,3.6417,3.6401,3.6405,3.6394,3.6429,3.6394,3.6401,3.6394,3.6394,3.6395,3.6436,3.6437,3.6438,3.6439,0,3.6485,3.6474,3.6478,3.6479,3.6483,3.6482,3.6479,3.6485,3.6457,3.6463,3.647,3.6473,3.6477,3.6483,3.6484,3.6477,3.6454,3.645,3.6457,3.6465,3.6472,3.6469,3.636,3.6448,3.6447,3.6446,3.6446,3.6446,3.655,3.6562,3.6553,3.6559,3.6554,3.6552,3.6562,3.6549,3.6555,3.6556,3.6541,3.6552,3.6545,3.6543,3.6539,3.6548,3.6532,3.6541,3.6544,3.6547,3.6552,3.6471,3.6548,3.6547,3.6547,3.6547,3.6547,0,3.6632,3.6624,3.663,3.6627,3.6632,3.6609,3.6605,3.6611,3.6621,3.6616,3.6619,3.6628,3.6634,3.662,3.6623,3.6633,3.6622,3.6635,3.6634,3.6633,3.6566,3.6559,3.6643,3.6643,3.6643,3.6643,3.6643,3.6643,3.6675,3.6695,3.6683,3.6701,3.6693,3.6704,3.6703,3.6702,3.6698,3.6709,3.6714,3.6704,3.6696,3.6698,3.6703,3.6699,3.6701,3.6718,3.671,3.6647,3.6638,3.6629,3.6623,3.6719,3.6719,3.6776,3.6777,3.6777]}]]